FW1708 Weather Reports


Display with metric or nautical units.
time (UTC)temp
F
wind
direction
speed
MPH
gust
MPH
rain 1hr
in
rain 24hr
in
rain mn
in
humidity
%
barometer
mb
20211208163113 36 9 0.0 1.0 0.00 0.00 0.00 66 1017.2
20211208161559 36 9 0.0 1.0 0.00 0.00 0.00 68 1017.8
20211208160123 35 9 0.0 0.0 0.00 0.00 0.00 69 1018.4
20211208154602 35 9 0.0 3.0 0.00 0.00 0.00 70 1018.6
20211208153019 35 67 0.0 0.0 0.00 0.00 0.00 70 1018.8
20211208151526 34 251 0.0 0.0 0.00 0.00 0.00 71 1019.3
20211208150023 34 251 0.0 0.0 0.00 0.00 0.00 71 1019.5
20211208144511 33 251 0.0 0.0 0.00 0.00 0.00 70 1019.7
20211208143015 33 251 0.0 1.0 0.00 0.00 0.00 71 1019.8
20211208141505 33 250 0.0 0.0 0.00 0.00 0.00 71 1020.0
20211208140124 32 251 0.0 0.0 0.00 0.00 0.00 72 1020.0
20211208134711 32 250 0.0 0.0 0.00 0.00 0.00 75 1020.1
20211208133234 31 251 0.0 0.0 0.00 0.00 0.00 75 1020.3
20211208131614 31 250 0.0 0.0 0.00 0.00 0.00 76 1019.9
20211208130111 31 250 0.0 0.0 0.00 0.00 0.00 77 1019.9
20211208124628 31 250 0.0 0.0 0.00 0.00 0.00 77 1020.0
20211208123105 30 250 0.0 0.0 0.00 0.00 0.00 77 1020.0
20211208121744 30 250 0.0 0.0 0.00 0.00 0.00 78 1020.0
20211208120258 30 250 0.0 0.0 0.00 0.00 0.00 80 1020.2
20211208114612 30 250 0.0 0.0 0.00 0.00 0.00 82 1020.4
20211208113127 30 250 0.0 0.0 0.00 0.00 0.00 80 1020.7
20211208111621 30 250 0.0 0.0 0.00 0.00 0.00 80 1020.6
20211208110149 30 250 0.0 0.0 0.00 0.00 0.00 80 1020.7
20211208104605 30 250 0.0 0.0 0.00 0.00 0.00 80 1020.7
20211208103119 30 250 0.0 0.0 0.00 0.00 0.00 80 1020.8
20211208101548 30 250 0.0 0.0 0.00 0.00 0.00 79 1020.8
20211208100129 31 250 0.0 0.0 0.00 0.00 0.00 79 1020.8
20211208094551 30 250 0.0 0.0 0.00 0.00 0.00 77 1020.8
20211208093038 30 250 0.0 0.0 0.00 0.00 0.00 79 1020.7
20211208091614 30 250 0.0 0.0 0.00 0.00 0.00 80 1020.8
20211208090101 30 250 0.0 0.0 0.00 0.00 0.00 81 1020.9
20211208084546 30 250 0.0 0.0 0.00 0.00 0.00 80 1021.1
20211208083105 30 250 0.0 0.0 0.00 0.00 0.00 80 1021.2
20211208081531 30 250 0.0 0.0 0.00 0.00 0.00 80 1021.6
20211208080050 30 250 0.0 0.0 0.00 0.00 0.00 80 1022.1
20211208074538 30 250 0.0 0.0 0.00 0.00 0.00 80 1021.9
20211208073129 30 250 0.0 0.0 0.00 0.00 0.00 80 1021.9
20211208071534 30 250 0.0 0.0 0.00 0.00 0.00 80 1021.8
20211208070113 30 250 0.0 0.0 0.00 0.00 0.00 80 1022.1
20211208064537 30 250 0.0 0.0 0.00 0.00 0.00 79 1021.9
20211208063114 30 250 0.0 0.0 0.00 0.00 0.00 79 1021.6
20211208061551 30 250 0.0 0.0 0.00 0.00 0.00 78 1021.6
20211208060046 30 250 0.0 0.0 0.00 0.00 0.00 79 1021.8
20211208054523 30 250 0.0 0.0 0.00 0.00 0.00 78 1021.9
20211208053042 30 250 0.0 0.0 0.00 0.00 0.00 78 1022.2
20211208051524 30 250 0.0 0.0 0.00 0.00 0.00 77 1022.6
20211208050015 31 250 0.0 0.0 0.00 0.00 0.00 78 1022.8
20211208044606 30 250 0.0 0.0 0.00 0.00 0.00 77 1023.0
20211208043019 31 250 0.0 0.0 0.00 0.00 0.00 77 1023.5
20211208041511 31 250 0.0 0.0 0.00 0.00 0.00 76 1023.6
20211208040016 31 250 0.0 0.0 0.00 0.00 0.00 75 1023.3
20211208034530 31 250 0.0 0.0 0.00 0.00 0.00 75 1023.7
20211208033011 31 250 0.0 0.0 0.00 0.00 0.00 75 1023.7
20211208031514 31 250 0.0 0.0 0.00 0.00 0.00 73 1023.6
20211208030009 31 250 0.0 0.0 0.00 0.00 0.00 74 1023.3
20211208024529 31 250 0.0 0.0 0.00 0.00 0.00 74 1023.6
20211208023008 31 250 0.0 0.0 0.00 0.00 0.00 74 1024.1
20211208021512 31 250 0.0 0.0 0.00 0.00 0.00 73 1024.2
20211208020015 31 250 0.0 0.0 0.00 0.00 0.00 73 1024.1
20211208014505 32 250 0.0 0.0 0.00 0.00 0.00 71 1024.0
20211208013007 32 250 0.0 0.0 0.00 0.00 0.00 71 1024.1
20211208011508 32 250 0.0 0.0 0.00 0.00 0.00 69 1024.2
20211208010012 32 250 0.0 0.0 0.00 0.23 0.00 69 1024.1
20211208004504 33 250 0.0 0.0 0.00 0.23 0.00 69 1024.1
20211208003002 33 250 0.0 0.0 0.00 0.23 0.00 66 1024.1
20211208001502 34 250 0.0 0.0 0.00 0.23 0.00 66 1024.1
20211208000002 34 250 0.0 0.0 0.00 0.23 0.00 64 1023.8
20211207234506 34 250 0.0 0.0 0.00 0.23 0.00 65 1024.0
20211207231619 34 250 0.0 0.0 0.00 0.23 0.00 64 1023.7
20211207230148 34 250 0.0 1.0 0.00 0.23 0.00 64 1023.7
20211207224621 34 250 0.0 0.0 0.00 0.23 0.00 64 1023.7
20211207223137 34 250 0.0 0.0 0.00 0.23 0.00 63 1023.6
20211207221641 35 251 0.0 2.0 0.00 0.23 0.00 62 1023.5
20211207220212 35 251 0.0 2.0 0.00 0.23 0.00 63 1023.5
20211207214652 35 248 0.0 2.0 0.00 0.23 0.00 62 1023.2
20211207213220 36 287 2.0 4.0 0.00 0.23 0.00 61 1023.7
20211207211651 37 293 1.0 4.0 0.00 0.23 0.00 59 1023.5
20211207210136 37 258 1.0 4.0 0.00 0.23 0.00 58 1023.7
20211207204620 37 298 2.0 4.0 0.00 0.23 0.00 57 1023.3
20211207203109 37 315 0.0 3.0 0.00 0.23 0.00 58 1023.2
20211207201632 38 269 2.0 6.0 0.00 0.23 0.00 57 1023.4
20211207200108 38 301 1.0 5.0 0.00 0.23 0.00 57 1023.1
20211207194713 38 304 2.0 8.0 0.00 0.23 0.00 55 1023.2
20211207193140 39 336 2.0 7.0 0.00 0.23 0.00 55 1023.1
20211207191556 39 307 2.0 6.0 0.00 0.23 0.00 55 1023.0
20211207190125 39 306 2.0 8.0 0.00 0.23 0.00 55 1023.1
20211207184557 40 263 3.0 7.0 0.00 0.23 0.00 55 1022.9
20211207183112 39 267 2.0 6.0 0.00 0.23 0.00 55 1023.2
20211207181736 39 257 3.0 9.0 0.00 0.23 0.00 54 1023.4
20211207180131 39 265 3.0 8.0 0.00 0.23 0.00 55 1023.5
20211207174651 39 318 4.0 9.0 0.00 0.23 0.00 55 1023.4
20211207173339 39 271 5.0 8.0 0.00 0.23 0.00 54 1023.4
20211207171612 39 242 2.0 9.0 0.00 0.23 0.00 55 1023.4
20211207170105 39 275 2.0 8.0 0.00 0.23 0.00 56 1023.5
20211207164600 38 304 3.0 8.0 0.00 0.23 0.00 57 1023.6